Simultaneous Nadir Overpasses (SNOs) Predictions

Prediction of SNOs between NOAA-20 and METOP-C Satellite Orbit:

Table of predicted SNOs for the next 14.0 days since TLE Epoch: 3/6/2021
Index Date (NOAA-20) Time (NOAA-20) Lat,Lon (NOAA-20) SZA (NOAA-20 ) Date (METOP-C) Time (METOP-C) Lat,Lon (METOP-C) SZA (METOP-C ) Distance(km) Time Diff (sec)
1 03/18/2021 20:05:16 73.36,-130.82 74.23 03/18/2021 20:06:23 73.31,-128.09 74.02 87.27 67
2 03/18/2021 20:55:59 -73.30, 36.63 105.86 03/18/2021 20:57:06 -73.26, 39.12 106.04 79.87 67
3 03/18/2021 21:46:40 73.06,-155.55 73.87 03/18/2021 21:47:50 73.04,-154.03 73.75 49.24 70
4 03/18/2021 22:37:23 -73.01, 11.90 106.21 03/18/2021 22:38:34 -72.94, 13.08 106.36 39.27 71
5 03/18/2021 23:28:04 72.77, 179.71 73.52 03/18/2021 23:29:18 72.71, 179.95 73.43 9.97 74
6 03/19/2021 00:18:47 -72.71, -12.85 106.57 03/19/2021 00:20:00 -72.71, -12.73 106.59 4.09 73
7 03/19/2021 01:09:32 72.67, 154.54 73.38 03/19/2021 01:10:40 72.69, 154.56 73.39 2.13 68
8 03/19/2021 02:00:16 -72.66, -38.13 106.64 03/19/2021 02:01:22 -72.69, -38.11 106.63 2.94 66
9 03/19/2021 02:51:02 72.68, 129.15 73.36 03/19/2021 02:52:02 72.67, 129.18 73.34 1.50 60
10 03/19/2021 03:41:46 -72.67, -63.52 106.66 03/19/2021 03:42:44 -72.67, -63.49 106.68 0.85 58
11 03/19/2021 04:32:31 72.63, 103.87 73.29 03/19/2021 04:33:24 72.65, 103.80 73.29 2.78 53
12 03/19/2021 05:23:15 -72.68, -88.91 106.69 03/19/2021 05:24:05 -72.65, -88.88 106.73 3.38 50
13 03/19/2021 06:14:00 72.64, 78.48 73.27 03/19/2021 06:14:45 72.63, 78.41 73.24 2.74 45
14 03/19/2021 07:04:44 -72.63,-114.19 106.76 03/19/2021 07:05:27 -72.63,-114.26 106.77 2.50 43
15 03/19/2021 07:55:30 72.65, 53.09 73.24 03/19/2021 07:56:06 72.66, 53.13 73.24 1.67 36
16 03/19/2021 08:46:14 -72.64,-139.57 106.78 03/19/2021 08:46:48 -72.66,-139.54 106.78 2.23 34
17 03/19/2021 09:37:00 72.65, 27.71 73.22 03/19/2021 09:37:28 72.63, 27.75 73.20 2.48 28
18 03/19/2021 10:27:44 -72.64,-164.96 106.81 03/19/2021 10:28:10 -72.63,-164.92 106.82 1.68 26
19 03/19/2021 11:18:29 72.61, 2.42 73.15 03/19/2021 11:18:50 72.61, 2.37 73.15 1.99 21
20 03/19/2021 12:09:13 -72.60, 169.76 106.88 03/19/2021 12:09:32 -72.61, 169.69 106.87 2.55 19
21 03/19/2021 12:59:59 72.61, -22.96 73.12 03/19/2021 13:00:12 72.59, -23.02 73.10 3.07 13
22 03/19/2021 13:50:43 -72.61, 144.37 106.90 03/19/2021 13:50:54 -72.59, 144.31 106.92 2.56 11
23 03/19/2021 14:41:29 72.62, -48.35 73.10 03/19/2021 14:41:33 72.62, -48.30 73.10 1.77 4
24 03/19/2021 15:32:13 -72.61, 118.98 106.93 03/19/2021 15:32:15 -72.62, 119.03 106.92 1.83 2
25 03/19/2021 16:22:58 72.58, -73.63 73.03 03/19/2021 16:22:55 72.60, -73.68 73.05 3.14 3
26 03/19/2021 17:13:43 -72.62, 93.60 106.95 03/19/2021 17:13:37 -72.60, 93.65 106.97 2.65 6
27 03/19/2021 18:04:28 72.58, -99.02 73.00 03/19/2021 18:04:17 72.58, -99.06 73.01 1.49 11
28 03/19/2021 18:55:12 -72.57, 68.31 107.02 03/19/2021 18:54:59 -72.58, 68.26 107.01 1.75 13
29 03/19/2021 19:45:58 72.59,-124.41 72.98 03/19/2021 19:45:38 72.61,-124.34 73.00 3.09 20
30 03/19/2021 20:36:42 -72.58, 42.93 107.05 03/19/2021 20:36:21 -72.56, 42.88 107.06 2.99 21
31 03/19/2021 21:27:28 72.59,-149.79 72.96 03/19/2021 21:27:00 72.59,-149.73 72.96 2.36 28
32 03/19/2021 22:18:12 -72.59, 17.54 107.07 03/19/2021 22:17:42 -72.59, 17.60 107.06 1.98 30
33 03/19/2021 23:08:57 72.55,-175.08 72.88 03/19/2021 23:08:22 72.56,-175.11 72.91 2.11 35
34 03/19/2021 23:59:41 -72.54, -7.74 107.14 03/19/2021 23:59:04 -72.56, -7.78 107.11 2.94 37
35 03/20/2021 00:50:27 72.55, 159.54 72.86 03/20/2021 00:49:44 72.54, 159.51 72.86 1.60 43
36 03/20/2021 01:41:11 -72.55, -33.13 107.17 03/20/2021 01:40:26 -72.54, -33.17 107.16 1.30 45
37 03/20/2021 02:31:57 72.56, 134.15 72.84 03/20/2021 02:31:05 72.57, 134.23 72.86 2.91 52



Historial Predications of SNOs between NOAA-20 and METOP-C
